Wetbulb
76.36 76.33 76.06 74.89 66.19 63.49 54.63 57.71 62.76 61.73 63.23 66.46 67.86 66.82 64.89 63.28 57.72 53.54 70.23 71.38 72.13 72.14 74.17 75.27 77.32 77.76 77.88 78.29 77.99 77.20 77.00 76.81 77.46 77.57 77.41 77.12 76.79 77.28 77.09 77.15 77.09 77.49 77.57 77.21 77.38 77.24 76.83 76.91 76.93
77.75 77.95 76.91 72.07 60.44 55.33 56.41 61.71 61.34 63.59 66.26 67.73 67.78 66.97 65.57 59.95 65.69 66.31 67.25 70.88 71.68 72.52 73.89 74.68 77.49 78.17 77.83 78.33 77.73 77.64 76.88 77.25 77.07 77.56 77.44 77.14 76.66 77.01 76.83 77.04 77.15 77.07 77.25 77.14 77.30 77.43 77.07 77.10 76.62
78.19 79.06 71.79 67.04 61.13 56.06 56.03 61.31 62.40 65.85 67.50 67.03 66.48 68.99 67.11 64.09 66.00 66.75 70.01 71.39 72.46 72.78 74.63 75.38 77.40 78.44 78.26 78.45 78.36 77.95 77.81 77.32 76.98 76.49 77.22 77.06 76.92 77.12 76.57 77.13 76.38 77.22 77.38 77.00 77.27 77.21 77.04 76.87 76.65
78.02 76.31 74.04 61.50 58.24 61.14 61.35 63.18 65.53 64.89 66.36 68.48 67.91 64.41 68.46 69.64 67.25 69.67 71.01 72.29 72.81 74.08 74.86 76.55 78.00 78.07 77.99 77.86 77.84 77.56 77.49 77.41 76.99 77.01 76.85 76.95 76.37 77.07 76.78 76.76 76.68 76.76 76.85 76.85 76.79 76.60 76.32 76.13 75.74
77.59 73.68 62.74 60.95 59.80 62.83 64.40 65.60 65.73 64.21 65.64 66.52 67.84 64.09 66.62 71.36 72.57 71.54 71.62 73.45 73.37 74.19 75.29 75.77 77.79 77.93 77.89 77.48 77.54 77.54 77.27 76.97 76.60 76.63 76.67 76.96 76.55 76.79 76.71 76.35 76.03 76.44 76.60 76.99 76.59 76.55 76.19 75.88 75.69
70.60 70.81 58.46 57.20 60.18 63.04 65.18 65.26 65.48 65.03 66.13 67.15 66.36 65.89 66.54 72.44 71.93 72.31 73.28 73.52 74.70 74.47 74.87 75.83 77.58 77.96 78.00 77.52 77.65 77.35 76.95 76.80 76.44 76.49 75.91 76.10 76.06 75.33 76.71 76.38 76.22 76.32 76.47 76.46 76.43 76.52 76.13 75.77 75.30
67.29 64.31 58.99 59.97 60.63 61.90 64.23 66.56 64.55 65.28 64.80 66.22 68.62 63.73 67.38 70.32 72.74 73.24 73.57 74.02 74.45 75.26 74.27 75.64 75.43 77.33 77.90 77.41 77.41 77.21 77.08 76.94 76.41 76.35 75.90 76.02 76.49 75.74 75.66 75.60 75.30 75.44 76.05 75.99 76.24 76.16 75.86 75.25 74.58
66.20 63.22 59.90 61.03 60.47 60.69 65.40 67.02 66.56 65.75 65.46 69.46 69.79 64.41 64.52 69.96 72.93 73.86 74.08 74.13 74.55 74.04 74.09 74.67 75.71 76.02 76.34 76.32 77.18 77.35 77.24 76.94 76.75 76.47 76.33 76.13 76.32 73.95 73.40 73.98 75.02 74.80 75.68 75.73 76.12 76.29 76.02 75.55 75.38
67.88 61.80 59.40 60.45 61.26 62.94 66.63 64.54 67.15 68.55 66.74 67.56 69.47 69.24 70.39 72.22 73.34 72.66 72.34 73.49 72.16 70.76 73.14 73.42 73.58 74.57 75.43 75.39 76.38 77.07 76.88 76.63 77.10 76.44 77.04 76.06 74.91 73.74 73.78 73.76 74.52 75.33 75.80 75.82 75.49 75.24 75.49 75.55 75.93
64.35 61.65 61.51 65.06 65.23 64.23 65.84 65.75 66.14 65.76 65.67 66.36 67.41 70.66 71.81 71.95 71.96 71.16 70.99 70.91 72.31 70.89 72.62 72.39 72.95 73.22 74.16 75.17 76.40 76.70 76.49 75.29 76.72 77.21 76.46 76.13 76.30 75.09 72.46 73.22 73.47 74.28 74.45 75.49 76.15 75.94 75.38 75.11 73.48
64.67 61.61 65.10 65.71 66.38 66.79 66.01 65.97 67.05 65.50 63.93 66.23 66.98 68.49 70.35 70.70 70.55 70.52 70.98 70.59 70.32 72.87 72.67 72.33 73.58 75.02 73.71 73.86 74.10 76.42 75.41 76.23 77.86 77.27 76.99 76.46 74.49 72.24 73.15 73.52 73.61 73.74 73.72 73.01 74.05 74.19 74.22 73.45 72.63
62.40 65.18 66.18 66.50 67.16 66.19 63.63 65.05 65.49 66.16 66.73 69.10 69.61 70.13 69.97 69.65 69.60 69.18 69.42 70.23 70.78 71.28 71.61 72.37 74.79 76.62 73.36 72.60 75.73 74.19 73.17 75.94 76.02 76.35 77.21 77.44 75.74 75.93 72.63 72.60 73.30 73.62 72.61 71.01 72.99 71.10 70.76 71.89 71.82
63.51 64.63 66.42 67.25 66.95 66.24 66.00 64.39 64.26 65.56 68.80 69.81 70.26 69.97 69.61 69.56 69.83 70.55 71.05 70.83 70.38 70.28 71.04 72.28 74.98 78.14 75.85 75.72 77.05 73.55 76.16 73.51 73.25 74.60 77.37 71.90 75.52 74.75 75.87 75.24 74.30 71.53 72.87 71.73 71.97 70.93 71.46 71.20 71.81
64.40 65.74 66.16 67.15 66.61 67.40 65.62 65.15 65.52 66.70 69.31 68.85 69.20 69.07 69.37 69.33 70.00 70.60 69.77 69.57 69.90 70.37 70.96 74.57 75.46 77.08 75.77 76.48 77.64 77.44 77.97 77.90 75.80 77.42 76.51 77.14 76.26 75.38 76.01 75.62 75.20 74.08 74.99 73.11 72.06 72.74 72.14 72.76 72.71
64.38 61.70 62.28 65.52 66.67 63.71 64.56 62.01 63.13 67.46 68.69 67.68 68.35 68.91 69.29 70.19 70.70 69.74 70.96 70.96 70.92 70.68 71.59 72.94 75.10 75.89 75.91 76.55 76.63 77.67 77.33 77.97 76.72 77.43 76.04 75.98 76.85 76.73 76.04 75.01 75.55 73.46 75.28 71.85 70.92 68.47 73.81 72.86 71.96
61.91 61.71 56.42 61.99 66.72 63.54 60.04 55.21 64.98 67.63 67.52 67.13 68.35 68.86 69.25 70.02 70.60 71.55 72.42 72.63 73.33 72.42 72.91 74.11 74.46 75.18 75.62 76.51 77.74 78.14 77.25 77.85 78.78 77.40 77.53 76.31 76.22 76.88 76.41 75.36 75.14 75.58 74.62 73.81 72.84 70.36 69.45 70.34 69.83
59.73 55.93 57.14 61.04 65.02 64.55 64.21 58.66 65.82 68.02 67.44 67.01 68.04 68.61 69.01 69.62 70.55 71.48 72.28 72.79 73.37 71.47 74.60 74.36 75.32 74.54 76.38 77.09 77.99 77.67 77.95 78.02 77.36 76.19 75.69 75.89 75.98 77.14 76.89 75.13 75.00 75.95 75.41 74.20 74.30 71.59 69.98 68.81 69.65
54.99 54.07 55.95 57.60 62.47 62.73 63.57 63.97 65.86 67.42 67.27 66.77 67.50 68.34 68.71 69.10 69.94 71.25 72.08 72.73 72.41 73.95 75.64 76.12 74.92 75.65 76.72 70.96 73.33 76.68 77.67 78.27 76.05 75.14 75.05 76.02 76.19 75.34 74.97 75.08 75.20 74.92 74.93 74.71 73.92 72.87 72.57 71.11 71.66
60.36 57.11 55.89 60.41 60.88 59.40 60.01 62.11 65.55 66.78 67.07 66.62 66.87 67.31 67.92 68.81 70.96 71.77 72.34 72.41 73.28 74.42 75.51 75.93 73.80 77.05 76.47 74.78 75.48 75.95 75.72 77.60 76.98 77.34 76.58 75.81 75.68 75.36 73.96 74.84 75.13 73.79 74.19 74.90 74.74 74.74 73.00 72.64 73.11
59.36 57.74 57.52 60.25 60.81 59.41 60.11 59.15 59.14 60.83 66.64 67.26 67.09 67.18 68.07 68.94 69.52 71.30 71.68 71.80 72.37 73.94 74.88 76.77 77.49 78.75 78.47 77.44 76.99 77.23 76.48 77.14 77.99 78.15 78.08 77.61 77.97 77.96 76.05 76.03 75.14 75.68 75.41 75.16 74.23 74.19 72.88 72.72 73.49
58.38 57.01 57.44 57.46 60.45 60.00 59.28 58.42 59.30 65.57 67.69 67.85 68.25 68.37 68.54 69.03 69.08 70.37 71.22 72.23 71.80 71.07 71.87 72.51 77.70 79.05 78.70 80.07 78.79 78.87 78.08 78.48 76.65 76.89 78.28 78.54 78.99 78.57 77.60 77.24 76.59 76.60 77.41 75.37 75.46 74.49 73.20 69.81 72.89
55.59 59.56 59.08 58.75 56.62 52.87 59.82 51.95 58.51 61.23 63.45 66.44 67.37 67.88 67.64 69.11 70.25 71.64 71.37 71.03 70.41 67.48 67.15 71.57 76.93 78.56 78.28 78.01 76.31 78.25 76.59 72.82 74.44 77.64 78.49 78.24 78.65 78.48 78.66 78.54 77.47 76.59 76.53 76.13 74.63 74.65 74.73 72.14 70.63
57.50 60.17 59.11 58.66 56.68 55.53 55.42 54.01 53.94 60.50 59.10 57.35 63.61 67.98 68.66 70.25 71.06 69.54 71.78 70.64 72.47 71.03 69.84 70.52 78.68 78.23 79.08 76.48 75.07 74.39 74.29 73.86 74.59 75.73 74.46 78.46 79.02 78.92 77.46 77.52 77.62 77.34 76.65 76.23 75.65 75.00 74.85 73.43 72.61
60.50 58.64 58.47 58.22 56.19 50.45 55.58 54.55 53.28 56.55 57.99 56.21 60.40 64.44 68.92 69.04 71.50 70.95 72.95 71.21 72.62 73.24 74.77 77.33 77.01 77.96 77.59 74.95 72.73 71.94 71.38 71.78 72.21 72.13 74.80 74.66 76.08 76.06 74.63 74.82 75.21 75.77 74.41 74.13 74.26 75.51 74.13 73.45 73.53
58.66 55.82 50.97 50.23 49.83 49.05 56.69 54.57 54.80 58.20 60.20 60.11 61.37 67.45 69.08 69.94 70.79 71.69 69.50 69.79 72.22 73.90 74.98 76.05 76.59 75.92 76.99 75.19 73.14 71.83 70.62 75.03 74.61 75.65 74.12 74.21 73.40 73.31 72.22 72.25 72.15 71.28 71.66 71.73 72.55 72.13 73.60 73.03 72.06
55.49 54.65 51.29 47.74 47.31 50.44 56.33 51.97 55.75 59.44 61.91 65.18 66.19 68.22 69.12 71.08 71.78 71.65 71.11 71.58 73.13 73.50 75.51 76.23 75.44 74.66 74.45 73.93 74.70 74.33 74.22 74.36 74.25 73.79 74.52 73.07 72.07 70.00 70.59 70.07 70.09 70.05 70.35 70.08 69.15 68.71 72.20 71.98 71.84
54.25 53.04 56.72 52.24 51.98 49.35 53.05 56.33 58.85 60.60 62.04 64.92 65.22 67.48 68.37 70.92 71.84 72.29 72.83 73.06 74.22 73.98 75.15 74.87 73.66 74.52 75.36 74.06 73.99 72.94 74.35 73.91 72.81 73.06 72.66 70.01 69.28 68.17 68.54 68.95 68.91 69.15 69.20 68.98 68.14 67.43 68.59 68.45 67.93
54.63 56.05 50.81 51.94 47.09 46.13 49.44 54.63 53.70 58.88 59.60 66.23 65.27 66.74 69.14 71.54 72.37 72.98 72.98 73.44 73.17 73.54 74.16 73.82 73.94 74.51 74.04 72.97 71.97 71.64 71.80 72.26 71.78 70.46 69.40 68.96 68.40 68.64 68.45 68.04 68.11 67.86 66.60 66.01 65.42 65.23 66.94 66.78 66.63
53.16 51.47 52.39 52.33 51.48 48.45 47.49 52.58 61.61 62.47 62.14 64.24 63.03 69.04 70.26 70.83 72.30 72.20 72.87 73.22 72.91 72.73 72.90 72.41 72.45 71.65 71.64 72.07 72.22 71.72 70.35 70.03 69.69 68.19 67.86 68.08 68.38 68.37 67.41 66.97 66.09 65.56 65.26 65.23 65.59 65.34 65.97 65.18 65.04
55.15 53.37 52.93 50.07 49.28 50.92 51.74 52.74 63.38 63.48 62.82 64.23 62.73 70.06 71.00 72.17 72.40 72.06 72.46 72.83 71.61 71.63 72.31 71.19 71.31 71.20 71.02 71.48 70.90 69.36 69.09 69.15 67.29 67.47 67.11 67.28 66.80 67.65 66.47 66.29 65.80 65.29 63.36 62.97 62.73 63.10 64.06 63.65 63.85
MSLP
1004.34 1003.98 1003.81 1003.00 1002.62 1001.47 1001.82 1001.43 1001.01 1001.28 1001.05 1001.48 1002.52 1003.71 1005.67 1006.72 1008.23 1010.06 1009.89 1011.07 1011.74 1011.95 1012.41 1012.80 1012.88 1012.86 1012.75 1013.01 1013.48 1013.76 1013.96 1014.26 1014.28 1014.17 1014.17 1014.41 1014.61 1014.66 1014.70 1014.73 1014.88 1014.88 1014.98 1015.16 1015.07 1015.01 1015.04 1015.16 1015.37
1003.29 1003.10 1002.71 1002.40 1001.87 1000.80 1000.69 1000.43 1000.78 1000.59 1000.93 1001.43 1002.75 1004.18 1005.57 1007.37 1007.21 1008.88 1010.18 1011.57 1011.94 1012.09 1012.11 1012.44 1012.95 1012.93 1013.01 1013.22 1013.58 1013.82 1014.07 1014.33 1014.34 1014.37 1014.47 1014.65 1014.84 1014.86 1014.90 1014.93 1015.10 1015.16 1015.23 1015.33 1015.31 1015.27 1015.26 1015.46 1015.69
1003.35 1002.02 1001.91 1000.95 1000.34 1000.35 1000.60 1000.41 1000.43 1001.09 1001.20 1001.71 1002.79 1003.79 1005.89 1007.73 1008.39 1009.39 1009.85 1011.13 1011.55 1011.81 1011.93 1012.42 1013.03 1013.19 1013.30 1013.47 1013.68 1014.01 1014.23 1014.39 1014.66 1014.71 1014.54 1014.72 1014.91 1015.00 1015.23 1015.23 1015.43 1015.30 1015.41 1015.54 1015.53 1015.51 1015.50 1015.68 1015.84
1002.09 1001.37 1000.70 999.32 999.81 999.97 999.98 999.78 999.98 1000.38 1000.78 1001.86 1003.51 1005.48 1007.26 1007.97 1008.63 1009.42 1010.51 1010.98 1011.23 1011.24 1011.57 1012.53 1013.05 1013.30 1013.43 1013.72 1013.93 1014.17 1014.36 1014.67 1014.69 1014.73 1014.89 1014.99 1015.16 1015.29 1015.38 1015.51 1015.69 1015.59 1015.66 1015.75 1015.84 1015.78 1015.72 1015.78 1016.00
1000.54 999.74 998.33 998.83 999.53 999.71 999.65 999.54 999.80 1000.35 1001.14 1002.44 1003.85 1005.81 1007.19 1007.89 1008.60 1009.44 1010.69 1010.89 1010.83 1011.07 1011.69 1012.58 1013.18 1013.43 1013.64 1013.88 1014.04 1014.28 1014.54 1014.86 1014.89 1014.96 1014.95 1015.10 1015.20 1015.30 1015.44 1015.71 1015.91 1015.89 1015.90 1015.89 1015.98 1015.96 1015.94 1015.89 1016.13
999.06 998.67 998.05 998.79 999.42 999.65 999.93 999.63 999.85 1000.56 1001.76 1003.38 1004.42 1006.09 1007.80 1008.37 1009.11 1009.73 1010.34 1010.61 1010.75 1011.05 1011.21 1012.55 1013.30 1013.54 1013.80 1013.94 1014.13 1014.43 1014.78 1014.92 1014.92 1014.98 1015.05 1015.11 1015.14 1015.32 1015.50 1015.65 1015.86 1015.98 1015.98 1016.02 1016.26 1016.21 1016.16 1016.00 1016.12
997.58 996.93 997.61 998.88 999.79 1000.15 999.98 999.81 999.91 1000.55 1001.78 1002.69 1004.19 1006.37 1008.56 1008.62 1008.91 1009.62 1010.12 1010.59 1010.94 1010.78 1011.36 1012.19 1012.85 1013.45 1013.72 1013.96 1014.21 1014.49 1014.69 1014.84 1014.93 1015.02 1015.12 1015.14 1015.25 1015.47 1015.45 1015.69 1015.85 1016.03 1016.18 1016.34 1016.44 1016.47 1016.41 1016.27 1016.19
995.63 995.85 997.10 998.48 999.72 1000.23 1000.34 1000.18 1000.47 1000.67 1001.72 1003.06 1003.85 1006.03 1007.47 1008.10 1008.91 1009.39 1010.27 1010.56 1011.31 1011.44 1011.83 1011.95 1012.50 1013.02 1013.39 1013.86 1014.18 1014.42 1014.63 1014.75 1014.92 1014.98 1015.04 1015.16 1015.52 1015.68 1015.70 1015.81 1015.81 1016.00 1016.31 1016.49 1016.44 1016.48 1016.42 1016.41 1016.34
995.35 996.20 997.23 998.40 999.27 999.61 1000.23 1000.70 1001.34 1001.52 1001.55 1002.40 1003.54 1004.97 1006.57 1007.87 1008.55 1009.42 1010.15 1010.82 1011.62 1011.03 1011.30 1011.23 1011.91 1012.45 1012.59 1013.05 1013.66 1014.04 1014.31 1014.54 1014.68 1014.84 1014.97 1015.24 1015.30 1015.55 1015.56 1015.68 1015.74 1015.90 1016.11 1016.30 1016.46 1016.42 1016.49 1016.43 1016.37
995.50 996.70 997.78 998.47 999.13 999.82 1000.38 1000.92 1001.21 1001.48 1001.88 1002.46 1003.51 1005.01 1006.30 1007.35 1008.21 1009.00 1009.66 1010.38 1010.74 1011.20 1011.31 1010.58 1010.76 1011.21 1011.35 1012.39 1013.66 1013.44 1013.72 1014.04 1014.23 1014.37 1014.88 1014.69 1014.70 1015.06 1015.39 1015.32 1015.61 1015.86 1016.01 1016.40 1016.37 1016.28 1016.33 1016.42 1016.01
995.84 996.95 998.36 999.15 999.27 999.64 1000.07 1000.34 1001.44 1000.98 1001.67 1002.45 1003.88 1005.07 1005.81 1007.11 1007.59 1008.15 1008.76 1008.92 1009.24 1009.63 1009.76 1010.19 1010.52 1010.77 1012.31 1013.14 1013.57 1012.83 1013.05 1013.23 1013.69 1014.22 1014.46 1014.36 1014.48 1014.73 1015.21 1015.32 1015.41 1015.82 1015.94 1015.97 1016.40 1016.60 1016.29 1015.99 1015.70
996.62 997.33 998.43 998.99 999.40 999.65 999.93 1000.32 1000.85 1001.16 1001.65 1002.65 1004.00 1005.19 1005.72 1006.11 1006.84 1007.25 1007.86 1007.92 1008.63 1009.14 1009.37 1009.69 1010.44 1011.25 1012.14 1013.73 1013.05 1012.59 1013.14 1013.25 1013.21 1013.78 1014.11 1014.34 1014.41 1014.20 1014.99 1015.04 1015.25 1015.50 1015.96 1016.27 1016.57 1016.89 1016.80 1016.46 1015.81
996.59 997.76 998.71 999.17 999.43 999.95 1000.48 1001.03 1001.49 1001.93 1002.17 1003.18 1004.16 1004.91 1005.46 1005.66 1006.12 1006.48 1006.97 1007.60 1008.30 1008.99 1009.20 1009.66 1010.34 1011.20 1012.21 1012.76 1012.45 1012.50 1012.82 1013.03 1013.45 1013.56 1013.72 1014.03 1013.95 1014.20 1014.22 1014.40 1014.69 1015.22 1015.55 1015.84 1016.04 1016.47 1016.60 1016.05 1015.76
996.93 997.46 998.30 998.97 999.76 1000.28 1000.94 1001.45 1001.64 1002.35 1002.53 1003.48 1004.26 1004.47 1004.78 1005.10 1005.57 1006.02 1006.53 1007.21 1007.91 1008.71 1009.06 1009.83 1010.56 1011.14 1011.68 1012.29 1012.38 1012.32 1012.28 1012.30 1013.02 1013.82 1014.22 1014.20 1014.25 1014.38 1014.19 1014.33 1014.50 1014.75 1014.97 1015.00 1015.25 1015.51 1015.69 1015.40 1014.91
997.18 999.81 999.68 998.68 999.33 1001.10 1001.15 1001.77 1001.43 1002.15 1002.76 1003.43 1003.89 1004.02 1004.21 1004.49 1004.87 1005.52 1006.10 1006.76 1007.38 1008.17 1008.58 1009.04 1010.13 1011.01 1011.85 1012.53 1012.65 1012.42 1012.32 1012.50 1012.77 1013.24 1013.79 1013.91 1014.05 1014.02 1014.46 1014.54 1014.63 1014.65 1014.79 1014.96 1015.20 1015.23 1014.99 1014.85 1014.91
997.46 1000.89 1003.72 999.98 999.45 1001.90 1000.74 1000.97 1001.07 1001.88 1002.46 1002.97 1003.34 1003.44 1003.73 1003.90 1004.29 1005.01 1005.66 1006.51 1006.96 1007.50 1008.20 1008.86 1009.56 1010.85 1011.98 1012.43 1012.66 1012.87 1012.63 1012.35 1012.45 1012.87 1013.25 1013.66 1013.85 1014.01 1014.14 1014.35 1014.43 1014.43 1014.62 1014.75 1014.98 1015.22 1015.18 1015.07 1015.15
1000.01 1001.34 1001.40 999.45 998.30 999.85 999.53 1001.74 1000.18 1001.32 1001.81 1002.30 1002.80 1003.13 1003.47 1003.78 1004.03 1004.69 1005.15 1005.99 1006.83 1008.49 1008.37 1008.66 1009.53 1010.75 1011.20 1012.02 1012.48 1012.73 1012.68 1012.65 1012.64 1012.98 1013.32 1013.62 1013.62 1013.64 1013.93 1014.19 1014.26 1014.35 1014.50 1014.65 1014.73 1014.86 1014.98 1014.88 1014.90
1000.21 1002.44 1000.45 999.89 997.70 997.64 997.94 998.60 1000.03 1000.97 1001.14 1001.45 1001.91 1002.58 1003.28 1003.66 1003.80 1004.41 1004.80 1005.56 1006.86 1007.74 1008.25 1009.21 1009.99 1010.69 1011.49 1011.89 1012.89 1012.55 1012.57 1012.55 1012.42 1012.78 1013.35 1013.61 1013.67 1013.82 1013.94 1013.84 1014.03 1014.11 1014.43 1014.42 1014.42 1014.58 1014.66 1014.60 1014.54
997.28 999.67 998.41 997.22 996.39 996.87 997.00 997.95 1000.70 1000.86 1000.91 1000.59 1001.03 1001.89 1002.54 1002.88 1003.41 1003.99 1004.69 1005.66 1006.47 1007.43 1008.42 1009.32 1010.38 1010.89 1011.45 1012.40 1012.60 1012.36 1012.56 1012.37 1012.37 1012.51 1012.87 1013.44 1013.52 1013.71 1013.82 1013.81 1014.03 1014.07 1014.08 1014.03 1014.15 1014.11 1014.10 1014.13 1014.04
995.63 995.86 995.64 995.65 995.61 996.05 997.21 999.36 1000.93 1003.40 1000.73 1000.24 1000.35 1000.90 1001.78 1002.06 1002.89 1003.74 1004.82 1005.70 1006.65 1008.73 1009.08 1009.27 1009.70 1010.37 1011.12 1011.30 1011.70 1011.80 1011.59 1011.79 1011.93 1012.06 1012.37 1012.86 1012.84 1013.11 1013.49 1013.70 1013.72 1013.88 1013.75 1013.70 1013.75 1013.76 1013.68 1013.49 1013.45
994.95 994.85 995.11 995.92 995.57 995.08 996.03 997.96 1000.19 1000.18 1000.27 999.86 999.87 1000.34 1000.98 1001.51 1002.34 1003.55 1004.72 1005.89 1007.58 1010.66 1011.13 1011.24 1009.31 1009.95 1010.74 1010.68 1010.81 1011.25 1011.51 1011.61 1011.82 1012.00 1012.16 1012.23 1012.47 1012.66 1012.98 1013.06 1013.44 1013.36 1013.32 1013.34 1013.59 1013.58 1013.58 1013.58 1013.25
994.13 994.16 994.25 994.73 994.91 994.78 995.73 996.74 999.33 1000.55 1000.55 1000.15 999.87 999.91 1000.14 1000.99 1002.06 1003.40 1004.63 1006.27 1008.48 1010.47 1011.14 1010.82 1009.92 1009.73 1010.38 1010.26 1010.29 1011.30 1011.37 1011.58 1011.78 1011.86 1012.20 1012.15 1012.21 1012.35 1012.41 1012.66 1012.82 1013.16 1013.21 1013.22 1013.35 1013.34 1013.33 1013.55 1013.38
993.99 993.73 994.33 994.92 995.19 995.29 995.45 997.51 1002.09 1002.70 1002.64 1001.67 1000.05 999.48 999.50 1000.32 1001.71 1003.38 1004.22 1005.91 1006.96 1008.72 1009.07 1010.23 1008.99 1009.85 1010.51 1010.98 1011.28 1011.82 1011.87 1012.10 1012.36 1012.50 1012.15 1011.89 1012.01 1011.81 1012.40 1012.63 1012.69 1012.83 1012.90 1013.12 1013.26 1013.19 1013.04 1013.08 1013.07
994.04 994.12 994.15 994.65 995.06 995.41 996.47 998.13 1002.49 1003.14 1003.14 1002.16 1000.63 1000.31 998.87 999.83 1001.42 1002.71 1004.08 1005.48 1006.29 1006.60 1007.32 1008.48 1009.21 1010.24 1010.73 1011.20 1011.78 1011.87 1011.25 1011.97 1012.66 1013.07 1012.73 1012.20 1012.16 1012.51 1012.87 1012.85 1012.87 1012.87 1013.20 1013.32 1013.25 1013.06 1013.04 1013.00 1012.77
994.03 994.19 994.09 994.47 994.81 995.38 997.21 998.96 1001.75 1002.85 1005.44 1002.98 999.96 998.32 998.37 999.45 1001.46 1002.73 1004.29 1005.30 1006.03 1006.37 1007.24 1008.34 1009.56 1010.45 1010.81 1011.22 1011.75 1011.77 1011.80 1011.87 1012.54 1012.61 1012.59 1012.34 1012.73 1012.94 1013.29 1013.34 1013.25 1013.26 1013.36 1013.39 1013.22 1013.16 1013.06 1013.07 1012.96
993.66 993.94 993.77 993.73 994.39 995.42 997.52 997.93 1000.22 1001.63 1000.71 999.24 997.28 997.02 997.80 999.45 1001.40 1002.57 1004.01 1004.92 1005.66 1006.58 1007.43 1008.71 1009.93 1010.71 1011.12 1011.36 1011.67 1011.95 1012.18 1012.20 1012.44 1012.92 1012.80 1012.91 1013.11 1013.38 1013.71 1013.80 1013.70 1013.78 1013.53 1013.56 1013.65 1013.48 1013.14 1013.08 1012.98
993.53 993.12 993.53 993.54 994.06 994.59 995.26 997.23 999.31 1000.60 1000.17 998.72 997.45 997.02 997.38 998.82 1000.74 1002.35 1003.72 1004.71 1005.80 1006.90 1007.94 1009.21 1010.10 1010.59 1010.85 1011.10 1011.61 1012.21 1012.43 1012.63 1013.26 1013.57 1013.49 1013.68 1014.02 1013.96 1014.21 1014.33 1014.22 1014.04 1013.82 1013.80 1013.73 1013.44 1013.18 1013.19 1013.05
993.46 993.32 993.00 993.33 993.63 994.10 994.65 995.75 998.18 999.93 1002.09 998.74 998.55 997.58 997.71 998.96 1000.25 1002.33 1003.65 1004.99 1006.27 1007.39 1008.50 1009.49 1010.22 1010.66 1010.86 1011.15 1011.85 1012.40 1012.87 1013.24 1013.68 1014.11 1014.24 1014.45 1014.68 1014.67 1014.59 1014.56 1014.36 1014.27 1014.47 1014.42 1014.37 1014.06 1013.70 1013.56 1013.51
992.96 993.05 992.90 992.84 992.93 993.21 993.68 995.43 996.44 998.37 999.22 998.15 998.86 998.19 998.32 999.10 1000.45 1002.46 1003.91 1005.43 1006.64 1007.91 1009.01 1009.94 1010.42 1010.86 1011.17 1011.44 1011.94 1012.44 1012.97 1013.48 1013.70 1014.14 1014.57 1014.75 1015.02 1014.87 1014.89 1014.94 1014.99 1014.99 1014.84 1014.77 1014.67 1014.40 1014.15 1014.02 1013.81
992.51 992.61 992.82 992.89 993.24 993.35 993.40 994.15 996.09 997.20 998.63 998.73 998.63 998.81 999.04 999.61 1000.64 1002.54 1004.09 1005.52 1007.24 1008.20 1009.18 1010.10 1010.53 1010.80 1011.15 1011.92 1012.37 1012.75 1013.15 1013.51 1013.99 1014.30 1014.63 1014.88 1015.06 1015.05 1015.25 1015.32 1015.22 1014.98 1015.17 1015.28 1015.16 1014.88 1014.51 1014.23 1014.08
Wind_Speed
12 12 8 7 5 4 10 8 13 9 17 13 23 20 21 25 17 7 10 14 7 11 8 5 4 9 11 12 12 10 10 9 7 10 10 9 7 9 9 10 10 9 11 11 11 11 10 10 10
14 13 8 3 1 11 11 12 19 11 14 12 18 20 22 17 10 12 10 12 10 9 7 9 6 10 12 11 11 10 10 9 7 9 9 8 8 8 8 9 9 8 10 10 10 10 10 10 8
15 14 4 4 10 10 7 12 11 19 9 12 19 17 11 7 15 18 12 17 14 11 10 12 9 10 12 12 11 10 10 8 7 8 8 7 8 9 7 9 7 10 9 10 10 11 10 9 8
10 6 7 9 15 13 11 8 16 8 12 21 21 18 13 15 20 13 21 17 13 13 10 14 12 11 12 12 11 10 9 7 7 6 6 7 7 8 8 8 7 9 10 9 9 10 9 8 6
13 6 6 11 14 12 10 11 12 12 16 20 22 17 20 19 18 22 19 14 15 8 13 13 12 11 11 11 11 10 8 6 5 5 5 7 8 7 9 7 6 7 8 10 9 9 7 6 4
10 7 11 12 14 12 10 9 14 14 19 21 22 20 11 22 22 20 18 15 5 16 15 14 13 12 11 11 10 9 7 7 6 6 5 6 10 7 7 6 6 7 7 8 8 7 6 5 4
14 4 16 14 12 9 14 9 10 16 14 21 23 22 17 16 21 17 15 14 12 5 15 14 13 11 11 10 10 9 8 7 4 5 5 6 10 10 8 7 6 4 5 6 7 6 6 3 2
8 11 18 15 12 8 8 12 10 13 17 19 18 17 18 16 19 16 15 8 19 8 11 12 12 12 11 11 11 9 8 7 6 5 7 8 9 6 3 3 5 7 6 6 7 8 6 5 5
9 12 13 17 12 6 11 13 12 10 7 8 17 25 22 22 23 16 12 12 17 13 5 17 15 12 11 13 11 12 12 10 9 8 10 10 6 6 5 5 6 6 9 8 8 8 8 7 8
13 11 16 15 14 13 13 11 11 11 9 15 18 25 25 23 21 18 16 14 21 21 18 8 16 15 13 8 10 11 11 8 7 7 6 5 6 7 7 9 7 5 5 6 10 11 10 9 7
14 14 15 12 10 13 11 9 12 9 12 14 20 19 20 27 19 18 18 17 13 16 12 13 6 8 13 6 10 6 4 6 6 7 6 5 3 5 5 4 3 2 2 4 5 5 5 8 7
9 15 12 10 11 9 11 11 11 13 12 19 20 20 16 15 14 8 5 12 13 8 6 10 9 10 11 4 5 4 2 4 5 6 7 3 3 2 6 3 4 4 4 7 4 3 9 10 10
16 12 12 9 9 12 14 12 10 11 13 18 21 19 17 16 13 13 16 14 14 10 9 9 8 8 6 5 3 5 5 4 5 3 5 2 4 3 2 2 3 5 6 6 6 7 7 9 12
5 12 15 12 10 13 10 2 9 10 15 18 19 18 16 12 17 12 12 12 13 11 11 15 12 8 7 3 2 3 3 2 6 3 3 3 4 3 2 3 1 1 2 4 2 4 8 7 4
6 29 30 8 12 9 15 9 11 13 16 18 18 16 15 15 15 13 13 11 14 13 15 12 14 12 10 7 4 2 2 3 3 3 4 4 4 3 2 4 2 3 3 2 1 4 3 3 1
13 24 12 25 22 12 21 9 15 16 17 18 17 14 13 14 16 15 15 18 14 12 14 13 12 13 10 7 4 3 4 2 1 1 3 4 3 2 3 3 2 3 2 3 4 3 3 4 2
18 13 11 13 12 20 13 6 17 18 16 16 15 14 13 11 12 11 14 14 9 14 10 12 10 14 14 9 5 4 3 3 2 3 2 3 5 4 2 3 3 4 4 4 4 4 5 5 5
14 8 24 27 14 10 13 15 19 19 17 15 15 15 13 13 13 13 15 14 12 19 9 8 1 9 12 14 12 5 5 4 5 5 3 2 2 1 1 3 2 2 3 4 4 6 5 5 6
22 30 34 20 7 8 13 1 16 15 17 18 15 15 15 16 13 17 12 13 15 12 12 15 12 12 11 9 8 4 3 3 5 5 8 8 5 6 5 5 3 4 5 4 3 4 7 5 6
7 14 11 9 4 6 14 16 30 30 17 16 15 17 15 16 15 16 13 12 13 10 2 9 7 9 6 8 7 4 5 2 0 3 6 7 7 6 5 7 4 5 4 5 4 5 5 4 4
11 15 7 10 17 8 8 6 11 14 13 13 14 16 17 15 18 16 13 11 14 17 11 18 10 8 7 7 6 3 5 1 3 3 4 3 3 3 5 2 4 4 3 3 1 3 4 5 3
12 12 9 16 10 14 10 11 7 5 3 4 13 14 17 16 18 16 13 18 20 19 13 23 13 11 8 8 5 4 2 2 4 1 2 3 4 4 2 1 3 3 2 3 2 4 4 0 6
16 19 5 9 15 17 22 4 5 15 6 18 17 16 16 17 21 18 14 13 18 20 18 15 10 9 5 3 10 3 6 4 5 4 2 3 4 3 8 5 6 5 3 4 4 4 4 4 5
13 19 16 13 11 13 9 11 4 7 10 18 32 30 18 20 19 17 14 12 7 7 9 14 10 6 7 4 7 4 9 4 0 7 5 6 4 6 7 6 5 6 6 6 5 5 5 5 6
18 17 12 12 13 7 6 3 7 9 23 28 31 22 17 20 21 17 14 12 9 10 8 12 10 8 7 7 1 1 3 3 1 4 4 6 4 3 7 8 8 7 7 7 6 8 5 6 6
21 20 14 16 15 4 4 5 6 14 33 31 11 18 18 24 21 20 17 14 11 9 10 12 10 7 7 6 5 3 4 2 3 6 3 5 5 6 7 6 6 6 5 6 7 5 4 5 4
20 19 20 18 19 17 11 3 14 11 17 5 8 17 17 24 22 19 15 14 10 10 10 11 10 8 7 7 7 5 3 3 5 4 6 7 7 6 7 6 6 6 6 7 8 6 6 6 6
19 19 16 12 17 18 14 11 7 21 12 6 5 12 14 19 21 19 14 13 12 11 8 10 7 7 8 8 9 6 6 6 6 6 6 6 6 5 6 6 6 9 11 11 11 9 9 8 6
14 17 19 17 12 12 14 5 19 25 20 11 3 9 13 17 18 16 16 13 14 13 12 11 9 9 8 7 8 7 7 6 6 6 6 5 5 5 7 8 10 8 7 7 5 6 7 7 9
16 18 19 13 14 15 16 2 16 23 9 0 3 11 14 15 17 17 17 14 19 14 13 12 11 10 9 8 7 7 6 6 6 5 6 6 6 5 8 4 4 6 10 9 9 9 7 6 7
Wind_Direction
173 190 221 246 282 101 4 50 66 90 75 65 67 66 66 130 134 184 133 159 177 138 135 152 134 117 120 126 131 131 124 123 120 113 107 111 113 109 114 115 114 120 116 113 118 118 121 116 117
196 188 223 284 323 44 54 75 84 78 74 53 84 83 72 93 113 102 104 157 150 150 147 139 137 115 122 131 138 134 129 126 117 110 103 105 113 117 114 112 119 123 112 118 118 112 112 109 107
256 254 234 241 62 84 73 79 74 82 40 64 60 75 67 102 117 136 135 153 163 160 170 132 144 130 123 124 127 134 131 123 118 113 109 119 114 106 106 109 124 125 119 119 114 116 112 117 112
233 228 233 69 71 70 79 74 73 42 96 106 104 69 89 119 142 152 139 155 171 158 163 137 148 140 130 130 130 129 128 132 123 112 116 107 111 115 109 111 118 118 119 112 115 121 119 115 112
241 257 85 88 66 68 64 94 123 86 71 95 101 105 97 124 145 133 152 168 178 147 127 138 147 139 135 136 136 137 137 136 129 129 114 113 109 117 118 117 120 108 128 129 140 133 127 115 112
257 208 60 56 68 49 88 83 86 90 88 102 100 103 110 121 135 152 166 172 209 158 150 134 142 143 145 142 133 132 138 133 125 120 112 110 128 126 126 129 126 136 142 141 139 143 143 133 117
283 64 81 85 77 56 55 58 66 93 123 109 113 113 133 142 147 148 158 167 186 173 132 139 150 147 141 136 139 149 147 137 128 116 126 123 131 136 119 118 145 140 159 149 162 176 163 170 176
308 71 84 82 78 85 118 52 53 73 100 162 111 128 148 135 124 155 149 170 150 172 155 148 145 158 160 157 157 148 146 146 153 146 140 129 131 139 147 112 132 157 165 172 185 185 191 208 240
300 77 57 68 88 119 126 88 79 120 116 59 128 138 141 140 145 128 144 162 82 274 273 159 158 170 193 167 167 166 168 176 178 164 145 148 157 165 161 193 175 184 178 187 191 200 211 218 239
90 69 57 66 76 75 78 117 148 125 110 108 113 124 150 150 153 160 167 162 173 203 210 166 165 175 189 155 161 177 178 184 187 140 182 215 165 144 184 192 190 210 215 217 213 204 208 227 242
87 101 95 64 79 97 124 147 141 168 132 121 125 134 153 160 159 170 173 173 192 176 153 185 135 149 85 95 227 171 169 178 145 157 181 232 178 149 173 181 194 90 74 283 232 232 243 229 249
99 88 89 89 89 101 90 72 62 55 99 121 135 143 156 165 146 193 90 156 137 188 161 140 147 120 90 177 281 109 313 171 169 179 193 149 209 176 157 171 140 162 173 209 163 67 298 283 282
121 120 105 110 107 78 68 80 97 101 112 126 136 156 161 176 172 163 157 157 147 183 184 136 127 82 93 116 25 129 233 177 139 156 194 215 228 196 217 157 162 175 171 211 182 180 210 258 252
137 147 144 146 117 107 89 103 110 122 128 134 150 163 172 175 166 159 154 151 160 180 177 128 115 121 107 85 97 192 211 300 126 136 182 258 321 348 296 218 194 274 211 199 251 213 196 227 288
165 49 11 152 146 81 61 342 132 145 143 150 164 173 165 177 158 167 163 164 171 180 159 162 155 160 153 173 234 162 261 159 146 135 155 193 216 226 279 262 200 247 223 142 251 291 318 282 265
252 101 178 274 117 139 125 228 149 158 160 163 170 175 167 175 168 169 169 166 162 174 156 161 164 155 162 180 205 217 246 48 98 85 167 208 196 248 266 273 280 257 211 210 217 234 272 275 243
4 20 284 247 146 161 173 246 157 172 173 170 173 176 177 180 166 169 166 155 168 134 178 170 151 158 165 154 175 189 200 180 135 111 52 30 204 196 238 336 271 236 226 235 244 218 220 239 247
185 56 292 269 166 197 182 156 163 179 177 174 179 171 184 180 191 170 168 174 184 159 172 110 59 124 111 113 256 207 218 182 175 161 189 206 293 26 305 266 248 296 259 235 219 239 202 228 245
188 178 207 233 145 228 273 266 116 187 189 175 181 170 184 183 189 163 201 174 162 151 157 144 199 159 146 154 194 188 204 203 195 221 181 202 213 215 226 252 233 258 256 254 258 242 244 237 233
279 267 244 23 139 232 106 197 108 249 201 185 181 170 187 185 167 161 191 178 155 58 177 163 188 157 189 176 172 185 164 204 212 253 172 199 211 211 206 236 246 266 256 246 248 275 282 281 244
257 271 115 159 263 276 291 179 180 169 194 192 191 185 185 184 168 168 181 159 82 90 330 298 174 162 193 249 137 123 147 116 187 234 209 185 222 222 234 244 244 272 283 323 13 280 307 297 308
241 275 324 315 288 285 210 285 164 297 164 295 207 199 189 183 168 159 170 105 120 131 200 252 229 162 203 233 141 161 166 165 255 155 153 200 182 210 197 211 235 241 292 297 314 284 271 304 279
261 284 193 282 294 286 284 176 257 271 356 333 278 221 203 167 152 163 167 144 161 168 185 232 150 154 186 51 51 50 50 45 356 287 171 257 176 137 67 33 29 21 3 11 324 312 291 231 267
260 268 276 279 271 270 7 15 134 172 211 194 252 265 193 162 156 164 151 151 186 154 173 127 128 131 131 115 125 136 142 112 322 271 266 224 146 74 47 23 25 29 16 2 354 350 332 315 308
246 251 261 245 251 265 74 98 163 109 279 232 220 216 181 155 144 148 148 152 187 129 125 125 122 141 118 126 100 34 82 91 314 319 347 33 26 46 38 19 13 16 8 359 7 346 338 357 337
228 250 254 255 261 167 314 235 158 105 261 211 170 158 166 138 151 155 157 165 144 155 140 116 129 133 135 151 106 75 85 111 41 29 343 46 28 58 39 20 18 12 6 15 13 320 14 26 3
254 249 244 275 280 276 238 179 136 165 359 242 152 147 158 144 150 144 157 150 142 120 124 125 140 162 160 135 139 136 104 81 83 32 17 45 37 18 35 16 17 8 23 19 357 4 17 15 349
237 260 250 229 254 272 272 204 116 81 283 5 299 150 149 140 144 148 155 129 121 130 116 112 125 142 122 112 107 110 104 95 94 72 58 64 43 35 34 18 18 31 38 24 14 358 12 6 15
219 241 260 279 281 276 262 134 150 152 179 173 266 156 154 144 142 144 138 145 130 125 127 125 135 119 132 112 105 112 108 98 76 81 66 55 62 46 40 26 45 24 44 7 19 338 22 9 3
231 255 236 248 258 267 281 188 170 162 129 276 94 167 156 149 146 151 139 154 125 136 135 147 155 148 126 110 116 111 94 82 80 58 80 52 51 40 74 33 81 36 47 23 13 4 349 16 350